• In Deutschland
  • Länderverzeichnis
  • Für 7 Tage
  • Wassertemperatur
  • Satellitenkarten
  • Wetterkarte
  • Widgets
  • user-avatar
    Anmelden

    Stündliche Wetter Korçe

    Heute, 25 November, Samstag

    Zeit Temperatur Niederschläge Wind Luftdruck Luftfeuchtigkeit
    00:00 +4°C° 0 mm 1 m/S 668 mmHg 81%
    01:00 +3°C° 0 mm 1 m/S 668 mmHg 81%
    02:00 +3°C° 0 mm 1 m/S 668 mmHg 80%
    03:00 +3°C° 0 mm 1 m/S 668 mmHg 80%
    04:00 +3°C° 0 mm 1 m/S 667 mmHg 80%
    05:00 +3°C° 0 mm 1 m/S 667 mmHg 79%
    06:00 +3°C° 0 mm 1 m/S 667 mmHg 79%
    07:00 +3°C° 0 mm 1 m/S 667 mmHg 79%
    08:00 +5°C° 0 mm 1 m/S 668 mmHg 72%
    09:00 +7°C° 0 mm 1 m/S 668 mmHg 65%
    10:00 +9°C° 0 mm 1 m/S 669 mmHg 58%
    11:00 +9°C° 0 mm 1 m/S 669 mmHg 55%
    12:00 +10°C° 0 mm 1 m/S 668 mmHg 53%
    13:00 +10°C° 0 mm 1 m/S 668 mmHg 50%
    14:00 +9°C° 0 mm 1 m/S 668 mmHg 56%
    15:00 +8°C° 0 mm 1 m/S 667 mmHg 62%
    16:00 +7°C° 0 mm 1 m/S 667 mmHg 68%
    17:00 +6°C° 0 mm 1 m/S 667 mmHg 72%
    18:00 +5°C° 0 mm 1 m/S 667 mmHg 76%
    19:00 +4°C° 0 mm 1 m/S 667 mmHg 80%
    20:00 +4°C° 0 mm 1 m/S 667 mmHg 81%
    21:00 +4°C° 0 mm 1 m/S 667 mmHg 83%
    22:00 +4°C° 0 mm 1 m/S 667 mmHg 84%
    23:00 +3°C° 0 mm 1 m/S 667 mmHg 84%

    Morgen, 26 November, Sonntag

    Zeit Temperatur Niederschläge Wind Luftdruck Luftfeuchtigkeit
    00:00 +3°C° 0 mm 1 m/S 667 mmHg 85%
    01:00 +2°C° 0 mm 2 m/S 666 mmHg 85%
    02:00 +2°C° 0 mm 2 m/S 666 mmHg 84%
    03:00 +2°C° 0 mm 2 m/S 666 mmHg 83%
    04:00 +2°C° 0 mm 2 m/S 666 mmHg 82%
    05:00 +2°C° 0 mm 2 m/S 666 mmHg 82%
    06:00 +2°C° 0 mm 2 m/S 666 mmHg 81%
    07:00 +2°C° 0 mm 2 m/S 666 mmHg 81%
    08:00 +4°C° 0 mm 2 m/S 666 mmHg 77%
    09:00 +5°C° 0 mm 3 m/S 667 mmHg 74%
    10:00 +8°C° 0 mm 3 m/S 667 mmHg 70%
    11:00 +8°C° 0 mm 3 m/S 667 mmHg 70%
    12:00 +9°C° 0 mm 3 m/S 666 mmHg 70%
    13:00 +10°C° 0 mm 3 m/S 666 mmHg 70%
    14:00 +9°C° 0 mm 3 m/S 665 mmHg 75%
    15:00 +8°C° 0 mm 3 m/S 665 mmHg 80%
    16:00 +7°C° 0 mm 3 m/S 664 mmHg 85%
    17:00 +5°C° 0,1 mm 3 m/S 664 mmHg 87%
    18:00 +5°C° 0,1 mm 3 m/S 664 mmHg 89%
    19:00 +5°C° 0,1 mm 3 m/S 664 mmHg 91%
    20:00 +4°C° 0,7 mm 3 m/S 664 mmHg 92%
    21:00 +4°C° 0,7 mm 3 m/S 664 mmHg 92%
    22:00 +5°C° 0,7 mm 2 m/S 664 mmHg 92%
    23:00 +5°C° 0,3 mm 2 m/S 663 mmHg 92%

    übermorgen, 27 November, Montag

    Zeit Temperatur Niederschläge Wind Luftdruck Luftfeuchtigkeit
    00:00 +5°C° 0,3 mm 2 m/S 663 mmHg 92%
    01:00 +6°C° 0,3 mm 1 m/S 662 mmHg 92%
    02:00 +6°C° 0,7 mm 1 m/S 662 mmHg 93%
    03:00 +6°C° 0,7 mm 1 m/S 662 mmHg 93%
    04:00 +5°C° 0,7 mm 0 m/S 661 mmHg 94%
    05:00 +6°C° 0,6 mm 1 m/S 661 mmHg 94%
    06:00 +6°C° 0,6 mm 1 m/S 661 mmHg 94%
    07:00 +5°C° 0,6 mm 1 m/S 661 mmHg 94%
    08:00 +6°C° 0,6 mm 1 m/S 661 mmHg 90%
    09:00 +5°C° 0,6 mm 2 m/S 662 mmHg 87%
    10:00 +6°C° 0,6 mm 2 m/S 662 mmHg 83%
    11:00 +6°C° 0,8 mm 2 m/S 662 mmHg 82%
    12:00 +6°C° 0,8 mm 2 m/S 661 mmHg 81%
    13:00 +4°C° 0,8 mm 3 m/S 661 mmHg 79%
    14:00 +4°C° 0,5 mm 3 m/S 661 mmHg 80%
    15:00 +3°C° 0,5 mm 3 m/S 661 mmHg 81%
    16:00 +3°C° 0,5 mm 3 m/S 661 mmHg 81%
    17:00 +3°C° 0,1 mm 2 m/S 661 mmHg 82%
    18:00 +3°C° 0,1 mm 2 m/S 661 mmHg 82%
    19:00 +2°C° 0,1 mm 2 m/S 662 mmHg 82%
    20:00 +2°C° 0 mm 2 m/S 662 mmHg 82%
    21:00 +2°C° 0 mm 2 m/S 662 mmHg 82%
    22:00 +1°C° 0 mm 2 m/S 662 mmHg 82%
    23:00 +1°C° 0,1 mm 2 m/S 662 mmHg 82%

    28 November, Dienstag

    Zeit Temperatur Niederschläge Wind Luftdruck Luftfeuchtigkeit
    00:00 +1°C° 0,1 mm 2 m/S 662 mmHg 83%
    01:00 +1°C° 0,1 mm 2 m/S 662 mmHg 83%
    02:00 -1°C° 0,1 mm 2 m/S 662 mmHg 84%
    03:00 -1°C° 0,1 mm 2 m/S 661 mmHg 84%
    04:00 -1°C° 0,1 mm 2 m/S 661 mmHg 85%
    05:00 -1°C° 0 mm 2 m/S 662 mmHg 85%
    06:00 -2°C° 0 mm 2 m/S 662 mmHg 86%
    07:00 -2°C° 0 mm 2 m/S 662 mmHg 86%
    08:00 -1°C° 0 mm 2 m/S 662 mmHg 81%
    09:00 +1°C° 0 mm 2 m/S 663 mmHg 75%
    10:00 +2°C° 0 mm 2 m/S 663 mmHg 70%
    11:00 +3°C° 0 mm 2 m/S 663 mmHg 68%
    12:00 +3°C° 0 mm 2 m/S 663 mmHg 66%
    13:00 +4°C° 0 mm 2 m/S 663 mmHg 65%
    14:00 +3°C° 0 mm 2 m/S 663 mmHg 69%
    15:00 +3°C° 0 mm 2 m/S 663 mmHg 73%
    16:00 +2°C° 0 mm 2 m/S 663 mmHg 77%
    17:00 +1°C° 0 mm 2 m/S 663 mmHg 79%
    18:00 +1°C° 0 mm 1 m/S 663 mmHg 82%
    19:00 +1°C° 0 mm 1 m/S 663 mmHg 85%
    20:00 0°C° 0 mm 1 m/S 663 mmHg 85%
    21:00 0°C° 0 mm 1 m/S 663 mmHg 85%
    22:00 0°C° 0 mm 1 m/S 663 mmHg 86%
    23:00 0°C° 0 mm 1 m/S 663 mmHg 86%

    29 November, Mittwoch

    Zeit Temperatur Niederschläge Wind Luftdruck Luftfeuchtigkeit
    00:00 0°C° 0 mm 1 m/S 663 mmHg 85%
    01:00 0°C° 0 mm 1 m/S 663 mmHg 85%
    02:00 0°C° 0 mm 1 m/S 663 mmHg 84%
    03:00 -1°C° 0 mm 1 m/S 663 mmHg 83%
    04:00 -1°C° 0 mm 1 m/S 663 mmHg 82%
    05:00 -1°C° 0 mm 1 m/S 663 mmHg 82%
    06:00 -1°C° 0 mm 1 m/S 664 mmHg 81%
    07:00 -1°C° 0 mm 1 m/S 664 mmHg 80%
    08:00 +1°C° 0 mm 1 m/S 664 mmHg 76%
    09:00 +2°C° 0 mm 2 m/S 665 mmHg 72%
    10:00 +3°C° 0 mm 2 m/S 665 mmHg 67%
    11:00 +4°C° 0 mm 2 m/S 665 mmHg 65%
    12:00 +4°C° 0 mm 2 m/S 665 mmHg 63%
    13:00 +5°C° 0 mm 2 m/S 665 mmHg 62%
    14:00 +4°C° 0 mm 2 m/S 665 mmHg 66%
    15:00 +3°C° 0 mm 2 m/S 664 mmHg 71%
    16:00 +2°C° 0 mm 2 m/S 664 mmHg 76%
    17:00 +1°C° 0 mm 2 m/S 664 mmHg 79%
    18:00 +1°C° 0 mm 2 m/S 664 mmHg 82%
    19:00 -1°C° 0 mm 3 m/S 664 mmHg 85%
    20:00 -1°C° 0 mm 3 m/S 664 mmHg 85%
    21:00 -1°C° 0 mm 3 m/S 664 mmHg 85%
    22:00 -1°C° 0 mm 3 m/S 664 mmHg 84%
    23:00 0°C° 0 mm 3 m/S 664 mmHg 85%

    30 November, Donnerstag

    Zeit Temperatur Niederschläge Wind Luftdruck Luftfeuchtigkeit
    00:00 0°C° 0 mm 3 m/S 664 mmHg 85%
    01:00 -1°C° 0 mm 4 m/S 664 mmHg 86%
    02:00 0°C° 0 mm 4 m/S 663 mmHg 86%
    03:00 0°C° 0 mm 4 m/S 663 mmHg 86%
    04:00 +1°C° 0 mm 4 m/S 663 mmHg 86%
    05:00 +1°C° 0,2 mm 4 m/S 663 mmHg 87%
    06:00 +1°C° 0,2 mm 4 m/S 663 mmHg 88%
    07:00 +3°C° 0,2 mm 4 m/S 662 mmHg 89%
    08:00 +3°C° 0,5 mm 4 m/S 662 mmHg 90%
    09:00 +3°C° 0,5 mm 5 m/S 662 mmHg 90%
    10:00 +3°C° 0,5 mm 5 m/S 662 mmHg 90%
    11:00 +5°C° 0,8 mm 5 m/S 662 mmHg 91%
    12:00 +5°C° 0,8 mm 5 m/S 662 mmHg 92%
    13:00 +5°C° 0,8 mm 5 m/S 661 mmHg 93%
    14:00 +5°C° 1,2 mm 5 m/S 661 mmHg 93%
    15:00 +6°C° 1,2 mm 5 m/S 661 mmHg 94%
    16:00 +6°C° 1,2 mm 5 m/S 661 mmHg 94%
    17:00 +6°C° 2 mm 5 m/S 661 mmHg 94%
    18:00 +6°C° 2 mm 5 m/S 661 mmHg 94%
    19:00 +6°C° 2 mm 5 m/S 661 mmHg 95%
    20:00 +6°C° 4,6 mm 5 m/S 661 mmHg 95%
    21:00 +6°C° 4,6 mm 4 m/S 661 mmHg 96%
    22:00 +6°C° 4,6 mm 4 m/S 661 mmHg 96%
    23:00 +5°C° 6,2 mm 4 m/S 660 mmHg 96%
    Mehr zeigen